Location: Concrete Bridge Crossing
(40.5373°N, 78.8672°W)
Time: 20:21:48
(UTC+00:00)

Envisat - Visible Passes

Search period start: 29 November 2020 00:00
Search period end: 09 December 2020 00:00
Orbit: 764 x 766 km, 98.1° (Epoch: 29 November)

Date Brightness Start Highest point End Pass type
(mag) Time Alt. Az. Time Alt. Az. Time Alt. Az.
29 Nov 5.9 09:58:44 10° NE 10:01:54 16° E 10:05:03 10° SE visible
29 Nov 3.1 11:36:18 10° N 11:41:16 56° WNW 11:46:13 10° SSW visible
29 Nov 4.3 22:50:30 10° S 22:55:20 45° W 23:00:12 10° NNW visible
30 Nov 3.5 10:59:26 10° NNE 11:04:30 65° E 11:09:32 10° S visible
30 Nov 3.0 22:13:25 10° SSE 22:18:29 81° ENE 22:23:35 10° N visible
30 Nov 6.3 23:56:47 10° WSW 23:58:05 11° W 23:59:24 10° WNW visible
01 Dec 5.0 10:23:09 10° NE 10:27:33 29° E 10:31:54 10° SSE visible
01 Dec 5.4 23:16:44 10° SSW 23:20:54 25° W 23:25:05 10° NW visible
02 Dec 6.2 09:48:12 10° ENE 09:50:23 13° E 09:52:33 10° ESE visible
02 Dec 2.9 11:24:50 10° N 11:29:54 72° WNW 11:34:57 10° SSW visible
02 Dec 3.8 22:38:56 10° S 22:43:54 57° W 22:48:56 10° NNW visible
03 Dec 3.9 10:48:08 10° NNE 10:53:05 51° E 10:58:01 10° S visible
03 Dec 6.1 23:43:52 10° WSW 23:46:34 14° W 23:49:16 10° WNW visible
04 Dec 5.4 10:12:05 10° NE 10:16:04 23° E 10:20:02 10° SE visible
04 Dec 3.4 11:50:28 10° N 11:55:13 41° WNW 11:59:57 10° SW visible
04 Dec 4.9 23:04:55 10° SSW 23:09:26 32° W 23:13:59 10° NNW visible
05 Dec 3.0 11:13:26 10° NNE 11:18:33 90° SE 11:23:37 10° SSW visible
05 Dec 3.3 22:27:27 10° S 22:32:30 73° WSW 22:37:35 10° NNW visible
06 Dec 4.4 10:36:53 10° NNE 10:41:40 40° E 10:46:24 10° SSE visible
06 Dec 5.9 23:31:35 10° SW 23:35:03 18° W 23:38:33 10° NW visible
07 Dec 5.8 10:01:10 10° NE 10:04:35 18° E 10:07:59 10° SE visible
07 Dec 3.1 11:38:57 10° N 11:43:53 52° WNW 11:48:47 10° SSW visible
07 Dec 4.5 22:53:14 10° SSW 22:57:59 41° W 23:02:47 10° NNW visible
08 Dec 3.3 11:02:03 10° NNE 11:07:09 71° ESE 11:12:12 10° S visible
08 Dec 3.0 22:16:02 10° SSE 22:21:07 88° ENE 22:26:14 10° NNW visible
